Location: Newark
(15.4608°S, 41.1635°W)
Time: 19:40:45
(UTC+00:00)

N. Korean satellite - Pass Details

Date: 22 June 2021
Orbit: 451 x 497 km, 97.2° (Epoch: 28 July)

Event Time Altitude Azimuth Distance (km) Brightness Sun altitude
Rises 08:31:58 0° 329° (NNW) 2,572 10.2 -9.4°
Reaches altitude 10° 08:36:04 10° 283° (WNW) 1,701 8.8 -8.5°
Maximum altitude 08:36:26 10° 277° (W) 1,695 8.8 -8.4°
Drops below altitude 10° 08:36:48 10° 272° (W) 1,703 8.8 -8.3°
Enters shadow 08:37:20 - 263° (W) 1,742 8.7 -8.2°
